Regional Weather Roundup
Issued by NWS

Home | Current Version | Previous Version | Text Only | Print | Product List | Glossary On
Versions: 1 2 3 4 5 6 7 8 9 10 11 12 13 14 15 16 17 18 19 20 21 22 23 24 25 26 27 28 29 30 31 32 33 34 35 36 37 38 39 40 41 42 43 44 45 46 47 48 49 50
000
ASUS43 KMPX 261001
RWRMN
WEATHER ROUNDUP FOR MINNESOTA
NATIONAL WEATHER SERVICE TWIN CITIES/CHANHASSEN MN
500 AM CDT THU APR 26 2018


NOTE: "FAIR" INDICATES FEW OR NO CLOUDS BELOW 12,000 FEET WITH NO
SIGNIFICANT WEATHER AND/OR OBSTRUCTIONS TO VISIBILITY. N/A MEANS
CURRENT SKY AND/OR WEATHER CONDITIONS ARE NOT AVAILABLE.

MNZ060>063-068>070-261100-
   Twin Cities Metro

CITY           SKY/WX    TMP DP  RH WIND       PRES   REMARKS
TWIN CITIES    CLOUDY    47  34  60 SW6       29.88F
ST PAUL        FAIR      43  35  73 E6        29.89S
CRYSTAL        FAIR      44  32  62 S5        29.86S
BLAINE         FAIR      46  36  66 SW6       29.87R
LAKEVILLE      FAIR      41  34  75 S3        29.88F
EDEN PRAIRIE   FAIR      42  33  70 SW9       29.86F
SOUTH ST PAUL  FAIR      41  34  76 SE3       29.88S
LAKE ELMO      FAIR      36  32  87 S3        29.89S
$$
MNZ001>005-007-008-013>017-022>024-027-028-261100-
   Northwest Minnesota

CITY           SKY/WX    TMP DP  RH WIND       PRES   REMARKS
BEMIDJI        FAIR      40  33  75 NW10G17   29.80S
HALLOCK        FAIR      37  27  65 N13       29.93R
ROSEAU         FAIR      39  34  81 NW8       29.88R
WARROAD        FAIR      39  36  87 NW7       29.87R
THIEF RVR FALL FAIR      42  30  62 N12       29.89R
CROOKSTON      FAIR      41  32  70 N17       29.90R
FOSSTON        FAIR      37  30  75 N9        29.86R
DETROIT LAKES  FAIR      43  34  70 NW7       29.82R
MOORHEAD       FAIR      43  32  65 N23       29.86R
PARK RAPIDS    MOCLDY    37  30  75 CALM      29.80R
MAHNOMEN       FAIR      38  34  83 N9        29.83R
$$
MNZ006-009>011-018-025>026-261100-
   North Central Minnesota

CITY           SKY/WX    TMP DP  RH WIND       PRES   REMARKS
BAUDETTE       FAIR      41  35  79 NW15      29.82R
FLAG ISLAND    FAIR      37  34  87 NW12      29.84R
INTL FALLS     MOCLDY    40  30  67 NW7       29.75R
WASKISH        MOCLDY    43  36  75 NW7       29.81R
BIG FORK       FAIR      36  28  75 SW6       29.76F
LONGVILLE      FAIR      39  30  70 SW3       29.79R
GRAND RAPIDS   FAIR      42  29  59 SW5       29.80F
CRANE LAKE     FAIR      39  27  60 CALM      29.77S
ORR            FAIR      39  25  56 S3        29.73F
COOK           FAIR      43  28  56 SW7       29.76F
WALKER         FAIR      41  30  66 W6        29.79R
$$
MNZ012-019>021-037-261100-
   Northeast Minnesota

CITY           SKY/WX    TMP DP  RH WIND       PRES   REMARKS
DULUTH         FAIR      42  28  57 W13       29.80F
ELY            FAIR      41  27  56 SW6       29.76F
HIBBING        FAIR      29  24  82 CALM      29.78S
EVELETH        FAIR      31  26  80 CALM      29.79F
DULUTH HARBOR  FAIR      34  30  86 CALM      29.83S
TWO HARBORS    FAIR      32  27  80 SW3       29.79F
SILVER BAY     FAIR      28  25  86 CALM      29.78F
GRAND MARAIS     N/A     30  23  75 CALM      29.80F
G MARAIS ARPRT FAIR      36  18  48 CALM      29.77F
$$
MNZ029>031-032-039>041-046>048-054>057-064-261100-
   West Central Minnesota

CITY           SKY/WX    TMP DP  RH WIND       PRES   REMARKS
FERGUS FALLS   FAIR      39  34  81 SW3       29.79S
WHEATON        CLOUDY    45  32  61 W9        29.83R
MORRIS         CLOUDY    39  34  81 SE5       29.81R
ALEXANDRIA     FAIR      46  31  55 SW10      29.81F
ELBOW LAKE     FAIR      36  33  87 S8        29.81S
WADENA         FAIR      39  30  70 W5        29.79R
GLENWOOD       FAIR      37  32  81 S8        29.81F
APPLETON       CLOUDY    43  34  70 S6        29.81S
BENSON         CLOUDY    39  32  75 S7        29.83F
ORTONVILLE     CLOUDY    46  32  57 SW5       29.80R
WILLMAR        FAIR      36  32  87 SE6       29.86F
$$
MNZ033>034-036-042>043-049>051-058-059-261100-
   Central Minnesota

CITY           SKY/WX    TMP DP  RH WIND       PRES   REMARKS
ST CLOUD       FAIR      38  32  79 SE6       29.83F
SAUK CENTRE    FAIR      39  32  75 S7        29.81F
PAYNESVILLE    FAIR      42  34  71 S8        29.83F
AITKIN         FAIR      37  28  70 S3        29.79F
PINE RIVER     FAIR      36  28  75 CALM      29.84S
BRAINERD       FAIR      42  30  62 S7        29.81F
STAPLES        FAIR      37  30  75 CALM      29.79F
LONG PRAIRIE   FAIR      37  32  81 S6        29.81F
LITTLE FALLS   FAIR      37  28  70 SE5       29.83S
LITCHFIELD     FAIR      39  34  81 CALM      29.85F
BUFFALO        FAIR      42  33  71 CALM      29.88R
MAPLE LAKE     FAIR      42  35  76 S3        29.87S
HUTCHINSON     FAIR      39  35  85 S3        29.88R
$$
MNZ037-044-045-052-053-261100-
   East Central Minnesota

CITY           SKY/WX    TMP DP  RH WIND       PRES   REMARKS
PRINCETON      FAIR      37  32  81 S6        29.85F
MORA           FAIR      32  28  86 CALM      29.86F
CAMBRIDGE      FAIR      43  30  61 S3        29.87S
RUSH CITY      FAIR      38  30  74 S5        29.86S
MOOSE LAKE     FAIR      32  27  80 SW3       29.81F
HINCKLEY       FAIR      32  30  93 S3        29.84F
CLOQUET        FAIR      39  25  56 SW7       29.81S
MCGREGOR       FAIR      39  32  75 SW3       29.81F
$$
MNZ071>073-080-081-089-090-097-098-261100-
   Southwest Minnesota

CITY           SKY/WX    TMP DP  RH WIND       PRES   REMARKS
MONTEVIDEO     CLOUDY    41  34  75 SW7       29.82F
GRANITE FALLS  CLOUDY    38  34  83 S8        29.85F
CANBY          CLOUDY    48  32  54 SW18G29   29.80F
MARSHALL       CLOUDY    49  31  49 SW22G28   29.82F
REDWOOD FALLS  CLOUDY    39  33  79 S8        29.85S
OLIVIA         CLOUDY    39  32  75 S6        29.85S
PIPESTONE      CLOUDY   N/A N/A N/A SW9       29.86F
WINDOM         CLOUDY    43  23  45 S10       29.88S
WORTHINGTON    CLOUDY    43  31  62 SW12      29.89F
JACKSON        CLOUDY    41  32  70 S12       29.89F
TRACY          CLOUDY    44  34  66 SW20      29.84F
SLAYTON        CLOUDY    43  32  65 S8        29.89R
$$
MNZ065>067-074>077-082>085-091>093-261100-
   South Central Minnesota

CITY           SKY/WX    TMP DP  RH WIND       PRES   REMARKS
MANKATO        FAIR      40  34  79 S5        29.89F
NEW ULM        CLOUDY    39  34  81 S9        29.87F
ST JAMES       CLOUDY    41  36  81 S13       29.88F
FAIRMONT       CLOUDY    41  35  79 S13       29.90F
GLENCOE        FAIR      41  35  80 S7        29.86S
OWATONNA       FAIR      43  36  75 S8        29.90F
WASECA         FAIR      37  32  81 S5        29.91F
ALBERT LEA     FAIR      37  37 100 CALM      29.92R
$$
MNZ078>079-086>088-094>096-261100-
   Southeast Minnesota

CITY           SKY/WX    TMP DP  RH WIND       PRES   REMARKS
ROCHESTER      FAIR      37  33  85 S6        29.92S
RED WING       FAIR      36  28  75 CALM      29.89F
STANTON        FAIR      36  32  85 S5        29.88F
DODGE CENTER   FAIR      37  32  81 S6        29.91F
WINONA         FAIR      36  32  87 CALM      29.91F
AUSTIN         FAIR      37  34  87 CALM      29.92S
PRESTON        FAIR      39  31  73 SW5       29.93S
$$
ABBREVIATIONS USED IN REMARKS
   TC - TEMPERATURES IN CELSIUS
  WCI - WIND CHILL INDEX
   HX - HEAT INDEX
  VSB - VISIBILITY
$$



USA.gov is the U.S. government's official web portal to all federal, state and local government web resources and services.